Location: Bartshausen
(51.8454°N, 9.8167°E)
Time: 06:37:06
(UTC+00:00)

Gbstr 26 Del rocket - Pass Details

Date: 08 November 2025
Orbit: 489 x 1219 km, 51.8° (Epoch: 11 December)

Event Time Altitude Azimuth Distance (km) Brightness Sun altitude
Exits shadow 03:58:56 29° 197° (SSW) 1,294 4.5 -23.1°
Maximum altitude 04:00:58 44° 147° (SSE) 1,049 4.4 -22.8°
Drops below altitude 10° 04:06:31 10° 77° (ENE) 2,545 7.3 -21.9°
Sets 04:09:26 0° 72° (ENE) 3,619 8.3 -21.5°
